Weather History for KRNO - February, 2014

Change the Weather History Date:

Tuesday, February 11, 2014

  Actual Average Record
Temperature  
Mean Temperature 45 °F 39 °F  
Max Temperature 60 °F 50 °F 68 °F (1921)
Min Temperature 29 °F 28 °F -6 °F (1901)
Degree Days  
Heating Degree Days 20 26  
Month to date heating degree days 282 295  
Since 1 July heating degree days 3303 3232  
Cooling Degree Days 0 0  
Month to date cooling degree days 0 0  
Year to date cooling degree days 0 0  
Moisture  
Dew Point 26 °F    
Average Humidity 54    
Maximum Humidity 92    
Minimum Humidity 16    
Precipitation  
Precipitation 0.00 in 0.03 in 1.10 in (1938)
Month to date precipitation 0.33 0.36  
Year to date precipitation 0.71 1.39  
Snow  
Snow 0.00 in 0.20 in 7.70 in (1922)
Month to date snowfall 1.1 1.8  
Since 1 July snowfall 6.2 15.8  
Snow Depth 0.00 in    
Sea Level Pressure  
Sea Level Pressure 30.18 in    
Wind  
Wind Speed 2 mph (NW)    
Max Wind Speed 10 mph    
Max Gust Speed 14 mph    
Visibility 10 miles    
Events      
T = Trace of Precipitation, MM = Missing Value Source: NWS Daily Summary

Daily Weather History Graph

Daily Weather History Graph

Search for Another Location

Airport or City:

Trip Planner

Search our weather history database for the weather conditions in past years. The results will help you decide how hot, cold, wet, or windy it might be!

Date:

Astronomy

Feb. 11, 2014 Rise Set
Actual Time 6:55 AM PST 5:31 PM PST
Civil Twilight 6:28 AM PST 5:58 PM PST
Nautical Twilight 5:56 AM PST 6:30 PM PST
Astronomical Twilight 5:25 AM PST 7:01 PM PST
Moon 2:56 PM PST (2/11) 4:36 AM PST (2/11)
Length of Visible Light 11h 30m
Length of Day
10h 35m
Waxing Gibbous, 91% of the Moon is Illuminated
Feb 11
Waxing Gibbous
Feb 14
Full
Feb 22
Last Quarter
Mar 1
New
Mar 8
First Quarter

Hourly Weather History & Observations

Time (PST) Temp. Windchill Dew Point Humidity Pressure Visibility Wind Dir Wind Speed Gust Speed Precip Events Conditions
12:55 AM 37.0 °F 33.3 °F 30.9 °F 79% 30.18 in 10.0 mi NW 4.6 mph - N/A   Mostly Cloudy
1:55 AM 35.1 °F - 30.9 °F 85% 30.19 in 10.0 mi Calm Calm - N/A   Mostly Cloudy
2:55 AM 33.1 °F 30.0 °F 30.0 °F 89% 30.19 in 10.0 mi SW 3.5 mph - N/A   Mostly Cloudy
3:55 AM 32.0 °F - 28.9 °F 88% 30.20 in 10.0 mi Calm Calm - N/A   Mostly Cloudy
4:55 AM 30.0 °F - 28.0 °F 92% 30.22 in 10.0 mi Calm Calm - N/A   Mostly Cloudy
5:55 AM 32.0 °F - 28.9 °F 88% 30.23 in 10.0 mi Calm Calm - N/A   Scattered Clouds
6:55 AM 30.9 °F - 28.0 °F 89% 30.23 in 10.0 mi Calm Calm - N/A   Scattered Clouds
7:55 AM 32.0 °F - 28.0 °F 85% 30.25 in 10.0 mi Calm Calm - N/A   Mostly Cloudy
8:55 AM 36.0 °F - 30.9 °F 82% 30.26 in 10.0 mi Calm Calm - N/A   Mostly Cloudy
9:55 AM 41.0 °F - 30.9 °F 67% 30.24 in 10.0 mi Calm Calm - N/A   Mostly Cloudy
10:55 AM 46.9 °F - 30.0 °F 52% 30.22 in 10.0 mi Calm Calm - N/A   Mostly Cloudy
11:55 AM 50.0 °F - 28.9 °F 44% 30.18 in 10.0 mi Calm Calm - N/A   Mostly Cloudy
12:55 PM 53.1 °F - 27.0 °F 37% 30.15 in 10.0 mi Calm Calm - N/A   Mostly Cloudy
1:55 PM 55.9 °F - 27.0 °F 33% 30.12 in 10.0 mi Variable 5.8 mph - N/A   Mostly Cloudy
2:55 PM 57.9 °F - 26.1 °F 30% 30.11 in 10.0 mi Variable 3.5 mph - N/A   Mostly Cloudy
3:55 PM 57.9 °F - 23.0 °F 26% 30.11 in 10.0 mi Calm Calm - N/A   Mostly Cloudy
4:55 PM 59.0 °F - 19.0 °F 21% 30.12 in 10.0 mi WNW 9.2 mph - N/A   Mostly Cloudy
5:55 PM 55.9 °F - 10.0 °F 16% 30.13 in 10.0 mi NW 5.8 mph - N/A   Mostly Cloudy
6:55 PM 53.1 °F - 21.0 °F 29% 30.14 in 10.0 mi Calm Calm - N/A   Mostly Cloudy
7:55 PM 54.0 °F - 17.1 °F 23% 30.15 in 10.0 mi Calm Calm - N/A   Mostly Cloudy
8:55 PM 52.0 °F - 19.0 °F 27% 30.17 in 10.0 mi Calm Calm - N/A   Overcast
9:55 PM 51.1 °F - 23.0 °F 33% 30.16 in 10.0 mi Calm Calm - N/A   Overcast
10:55 PM 48.9 °F - 25.0 °F 39% 30.15 in 10.0 mi WNW 4.6 mph - N/A   Mostly Cloudy
11:55 PM 48.9 °F - 24.1 °F 38% 30.12 in 10.0 mi NE 8.1 mph - N/A   Mostly Cloudy